Regional Weather Roundup
Issued by NWS

Home | Current Version | Previous Version | Text Only | Print | Product List | Glossary On
Versions: 1 2 3 4 5 6 7 8 9 10 11 12 13 14 15 16 17 18 19 20 21 22 23 24 25 26 27 28 29 30 31 32 33 34 35 36 37 38 39 40 41 42 43 44 45 46 47 48 49 50
000
ASUS43 KMKX 201200
RWRWI

WISCONSIN REGIONAL WEATHER ROUNDUP
NATIONAL WEATHER SERVICE MILWAUKEE/SULLIVAN WI
600 AM CST MON NOV 20 2017

NOTE: "FAIR" INDICATES FEW OR NO CLOUDS BELOW 12,000 FEET WITH NO
SIGNIFICANT WEATHER AND/OR OBSTRUCTIONS TO VISIBILITY.

WIZ001-002-006>008-014>016-023>028-201300-
NORTHWEST WISCONSIN

CITY           SKY/WX    TMP DP  RH WIND       PRES   REMARKS
SUPERIOR ARPT  CLOUDY    18  16  93 CALM      29.69F
6HR MIN TEMP:  15; 6HR MAX TEMP:  19;

ASHLAND        CLOUDY    20  17  88 CALM      29.71S
6HR MIN TEMP:  16; 6HR MAX TEMP:  20;

HAYWARD        CLOUDY    18  15  88 CALM      29.69F
6HR MIN TEMP:  16; 6HR MAX TEMP:  19;

SIREN          CLOUDY    22  20  93 CALM      29.68F
CUMBERLAND     CLOUDY    21  21 100 CALM      29.69F
RICE LAKE      CLOUDY    24  22  94 SE3       29.72F
CHETEK         CLOUDY    22  20  95 CALM      29.71F
LADYSMITH      CLOUDY    24  22  93 SE5       29.73F WCI  18
EAU CLAIRE     NOT AVBL
MENOMONIE      CLOUDY    26  24  93 E3        29.72F
6HR MIN TEMP:  24; 6HR MAX TEMP:  29;

NEW RICHMOND   CLOUDY    30  25  83 S5        29.70F WCI  25
OSCEOLA        CLOUDY    31  27  84 S6        29.72F WCI  25
$$

WIZ003>005-009-010-017-018-201300-
NORTH CENTRAL WISCONSIN

CITY           SKY/WX    TMP DP  RH WIND       PRES   REMARKS
MANITOWISH WTR CLOUDY    13  13 100 CALM      29.70F
ARBOR VITAE    CLOUDY    19  17  92 CALM      29.71F
WOODRUFF       CLOUDY    19  17  92 CALM      29.71F
RHINELANDER    CLOUDY     1  32 100 SW5       29.72F WCI  -9
EAGLE RIVER    CLOUDY    15  15  98 CALM      29.71F
6HR MIN TEMP:  11; 6HR MAX TEMP:  15;

LAND O LAKES   CLOUDY    11   9  90 CALM      29.73F
PHILLIPS       CLOUDY    25  24  95 S5        29.70F WCI  19
6HR MIN TEMP:  18; 6HR MAX TEMP:  25;

TOMAHAWK       CLOUDY    17  15  93 CALM      29.74S
MEDFORD        CLOUDY    24  22  91 S6        29.72F WCI  17
MERRILL        CLOUDY    17  15  95 CALM      29.75F
6HR MIN TEMP:  15; 6HR MAX TEMP:  21;

$$

WIZ029-030-035-036-043>047-201300-
CENTRAL WISCONSIN

CITY           SKY/WX    TMP DP  RH WIND       PRES   REMARKS
WAUSAU         CLOUDY    24  21  88 E3        29.75F
6HR MIN TEMP:  22; 6HR MAX TEMP:  27;

MOSINEE        MOCLDY    23  23 100 S5        29.77S WCI  17
MARSHFIELD     CLOUDY    24  20  84 S8        29.74F WCI  15
6HR MIN TEMP:  22; 6HR MAX TEMP:  25;

STEVENS POINT  CLOUDY    24  22  94 S5        29.78F WCI  18
WAUPACA        CLOUDY    24  20  87 CALM      29.81F
WAUTOMA        CLOUDY    17  14  88 CALM      29.82F
6HR MIN TEMP:  16; 6HR MAX TEMP:  21;

WISC RAPIDS    CLOUDY    27  23  85 S7        29.78F WCI  19
6HR MIN TEMP:  21; 6HR MAX TEMP:  27;

CAMP DOUGLAS   CLOUDY   N/A N/A N/A S6        29.80F
$$

WIZ011>013-019>022-031-037>040-048>050-201300-
NORTHEAST WISCONSIN

CITY           SKY/WX    TMP DP  RH WIND       PRES   REMARKS
ANTIGO         CLOUDY    23  21  93 CALM      29.75F
SHAWANO        CLOUDY    26  22  85 CALM      29.80S
6HR MIN TEMP:  24; 6HR MAX TEMP:  28;

OCONTO         CLOUDY    19  17  92 CALM      29.82S
STURGEON BAY   CLEAR     27  22  81 SW3       29.83S
6HR MIN TEMP:  26; 6HR MAX TEMP:  29;

GREEN BAY      CLOUDY    29  26  89 S5        29.81F WCI  24
6HR MIN TEMP:  28; 6HR MAX TEMP:  30;

MANITOWOC      CLEAR     32  24  72 SW10      29.83F WCI  24
6HR MIN TEMP:  28; 6HR MAX TEMP:  33;

APPLETON       PTCLDY    27  21  80 S8        29.80F WCI  18
CLINTONVILLE   CLOUDY    25  19  80 S3        29.80F
OSHKOSH        CLOUDY    29  23  78 S12       29.82F WCI  19
6HR MIN TEMP:  28; 6HR MAX TEMP:  30;

$$

WIZ032>034-041-042-053>061-201300-
SOUTHWEST WISCONSIN

CITY           SKY/WX    TMP DP  RH WIND       PRES   REMARKS
LA CROSSE      CLOUDY    34  27  75 S9        29.78F WCI  27
6HR MIN TEMP:  33; 6HR MAX TEMP:  35;

SPARTA         CLOUDY    25  23  94 S5        29.79F WCI  19
VIROQUA        CLOUDY    30  27  89 S6        29.79F WCI  24
6HR MIN TEMP:  30; 6HR MAX TEMP:  32;

BOSCOBEL       CLOUDY    24  21  88 CALM      29.85F
6HR MIN TEMP:  22; 6HR MAX TEMP:  31;

PRAIRIE DU CHI CLOUDY    33  25  70 CALM      29.83F
PLATTEVILLE    CLEAR     29  27  90 SE7       29.88R WCI  22
$$

WIZ056-057-062-063-064-067-068-201300-
SOUTH CENTRAL WISCONSIN

CITY           SKY/WX    TMP DP  RH WIND       PRES   REMARKS
REEDSBURG      CLOUDY    31  25  77 S3        29.83F
BARABOO/DELLS  CLOUDY    32  25  74 SW3       29.82S
LONE ROCK      NOT AVBL
MINERAL POINT  CLEAR     32  30  93 S10       29.83F WCI  24
MADISON        PTCLDY    31  25  78 S8        29.86F WCI  23
6HR MIN TEMP:  31; 6HR MAX TEMP:  34;

MIDDLETON      CLEAR     32  26  79 SW7       29.86F WCI  26
WATERTOWN      CLEAR     28  26  92 S5        29.87F WCI  22
MONROE         CLEAR     30  27  86 S10       29.89R WCI  21
JANESVILLE     CLEAR     32  27  80 SW6       29.91R WCI  26
$$

WIZ051-052-058>065-066-070>072-201300-
SOUTHEAST WISCONSIN

CITY           SKY/WX    TMP DP  RH WIND       PRES   REMARKS
MILWAUKEE      PTCLDY    33  24  69 SW14      29.89F WCI  23
6HR MIN TEMP:  30; 6HR MAX TEMP:  33;

WAUKESHA       CLEAR     28  21  74 SW7       29.90S WCI  21
MILWAUKEE/TIMM CLEAR     32  23  69 SW10      29.89F WCI  24
RACINE         CLEAR     33  24  69 SW9       29.91F WCI  25
6HR MIN TEMP:  31; 6HR MAX TEMP:  33;

BURLINGTON     CLEAR     32  29  88 S9        29.91R WCI  24
KENOSHA        CLEAR     32  23  69 SW12      29.91F WCI  23
6HR MIN TEMP:  31; 6HR MAX TEMP:  32;

FOND DU LAC    CLEAR     31  23  72 S14       29.83F WCI  21
6HR MIN TEMP:  29; 6HR MAX TEMP:  31;

SHEBOYGAN      CLEAR     31  25  78 SW9       29.85F WCI  23
6HR MIN TEMP:  29; 6HR MAX TEMP:  32;

WEST BEND      CLEAR     32  25  74 SW7       29.87F WCI  26
JUNEAU         CLEAR     28  23  84 S7        29.88S WCI  20
$$

LSZ147-162-201300-
LAKE SUPERIOR

STATION/POSITION TIME  TEMP    WIND        PRES    WAVE
                       AIR SEA DIR/SP/G            HT/PER
                 (UTC) (F)     (DEG/KT/KT) (MB)    (FT/S)
DEVILS ISLAND    1100   30     150/  5/  7 1007.0F
SAXON HARBOR     1140   26     190/  5/  7 1005.4F
$$

LMZ867-665-643>646-201300-
LAKE MICHIGAN

STATION/POSITION TIME  TEMP    WIND        PRES    WAVE
                       AIR SEA DIR/SP/G            HT/PER
                 (UTC) (F)     (DEG/KT/KT) (MB)    (FT/S)
N MID LAKE BUOY  1050   36 48  250/  8/ 12 1011.3F   2/ 5
NORTHPORT PIER   1140   29      CALM  /  4 1009.8F
KEWAUNEE LAKESHO 1130   31     280/  8/ 13 1009.2F
SHEBOYGAN LAKESH 1100   34     240/ 16/ 19 1011.4F
PORT WASHINGTON  1130   35     260/  9/ 15 1012.5F
MILWAUKEE LAKESH 1130   34     230/ 13/ 14   N/A
S MID LAKE BUOY  1050   42 49  270/ 21/ 25 1013.9F   6/ 5
KENOSHA   LAKESH 1100   34     230/ 14/ 19 1013.5
$$

TC  - TEMPERATURE IN CELSIUS
VSB - VISIBILITY IN STATUTE MILES
WCI - WIND CHILL INDEX
HX  - HEAT INDEX





USA.gov is the U.S. government's official web portal to all federal, state and local government web resources and services.